User: anonymous   Login
Location: NJAA Observatory
(40.6819°N, 74.8979°W)
Time: 11:38:42
(UTC-04:00)
Language:

Cosmos 2082 - Orbit

View from above orbital plane
View from above orbital plane
View from above satellite
View from above satellite

Ground track
Ground track

The orbit data is extracted from the following two-line orbital elements,

1 20624U 90046A   15183.45318041 -.00000221  00000-0 -91288-4 0  9996
2 20624 071.0402 272.5652 0013688 031.6468 328.5475 14.14156143296004
Epoch (UTC): 02 July 2015 10:52:34
Eccentricity: 0.0013688
inclination: 71.0402°
perigee height: 835 km
apogee height: 855 km
right ascension of ascending node: 272.5652°
argument of perigee: 31.6468°
revolutions per day: 14.14156143
mean anomaly at epoch: 328.5475°
orbit number at epoch: 29600

The dashed part of the orbit path shows where the satellite is in the earth's shadow,  

DLR